Weather History for Frenchville, ME

Change the Weather History Date:

Monday, March 4, 2013

  Actual Average Record
Temperature  
Mean Temperature 35 °F 19 °F  
Max Temperature 38 °F 28 °F 46 °F (1999)
Min Temperature 32 °F 10 °F -14 °F (2014)
Degree Days  
Heating Degree Days 30    
Month to date heating degree days 132  
Since 1 July heating degree days 6622  
Cooling Degree Days 0    
Month to date cooling degree days 0  
Year to date cooling degree days 0  
Moisture  
Dew Point 30 °F    
Average Humidity 89    
Maximum Humidity 100    
Minimum Humidity 68    
Precipitation  
Precipitation 0.04 in 0.03 in 0.26 in (1999)
Month to date precipitation 0.13 0.13  
Year to date precipitation 2.35 2.70  
Sea Level Pressure  
Sea Level Pressure 29.49 in    
Wind  
Wind Speed 12 mph (NNE)    
Max Wind Speed 25 mph    
Max Gust Speed 41 mph    
Visibility 5 miles    
Events Fog , Snow    
T = Trace of Precipitation, MM = Missing Value Source: NWS Daily Summary

Daily Weather History Graph

Daily Weather History Graph

Search for Another Location

Airport:

Trip Planner

Search our weather history database for the weather conditions in past years. The results will help you decide how hot, cold, wet, or windy it might be!

Date:

Astronomy

Mar. 04, 2013 Rise Set
Actual Time 6:07 AM EST 5:23 PM EST
Civil Twilight 5:36 AM EST 5:53 PM EST
Nautical Twilight 5:01 AM EST 6:29 PM EST
Astronomical Twilight 4:25 AM EST 7:05 PM EST
Moon 12:29 AM EST (3/4) 9:44 AM EST (3/4)
Length of Visible Light 12h 17m
Length of Day
11h 15m
Waning Gibbous, 52% of the Moon is Illuminated
Mar 4
Waning Gibbous
Mar 4
Last Quarter
Mar 11
New
Mar 19
First Quarter
Mar 27
Full

Hourly Weather History & Observations

Time (EST) Temp. Windchill Dew Point Humidity Pressure Visibility Wind Dir Wind Speed Gust Speed Precip Events Conditions
12:13 AM 32.0 °F 25.6 °F 32.0 °F 100% 29.41 in 0.5 mi North 6.9 mph - 0.01 in Fog Fog
12:18 AM 32.0 °F 25.6 °F 32.0 °F 100% 29.41 in 1.5 mi North 6.9 mph - 0.01 in   Overcast
12:20 AM 32.0 °F 24.8 °F 32.0 °F 100% 29.41 in 2.0 mi North 8.1 mph - 0.01 in   Overcast
12:26 AM 32.0 °F 25.6 °F 32.0 °F 100% 29.41 in 2.5 mi North 6.9 mph - 0.01 in   Overcast
12:34 AM 32.0 °F 24.8 °F 32.0 °F 100% 29.41 in 3.0 mi North 8.1 mph - 0.01 in   Overcast
12:48 AM 32.0 °F 23.6 °F 30.2 °F 93% 29.42 in 2.5 mi North 10.4 mph - 0.01 in   Overcast
12:53 AM 32.0 °F 23.6 °F 32.0 °F 100% 29.44 in 2.0 mi North 10.4 mph - 0.01 in   Overcast
12:57 AM 32.0 °F 24.2 °F 32.0 °F 100% 29.42 in 1.5 mi North 9.2 mph - 0.00 in   Overcast
1:04 AM 32.0 °F 25.6 °F 32.0 °F 100% 29.42 in 1.0 mi North 6.9 mph - 0.00 in Snow Light Snow
1:10 AM 32.0 °F 24.8 °F 32.0 °F 100% 29.42 in 0.8 mi North 8.1 mph - 0.00 in Snow Light Snow
1:21 AM 32.0 °F 24.2 °F 30.2 °F 93% 29.42 in 0.5 mi North 9.2 mph - 0.01 in Fog , Snow Light Snow
1:28 AM 32.0 °F 24.2 °F 30.2 °F 93% 29.42 in 0.8 mi North 9.2 mph - N/A Snow Light Snow
1:53 AM 32.0 °F 25.6 °F 32.0 °F 100% 29.44 in 1.0 mi North 6.9 mph - 0.01 in Snow Light Snow
1:59 AM 32.0 °F 25.6 °F 32.0 °F 100% 29.42 in 1.5 mi North 6.9 mph - 0.01 in Snow Light Snow
2:06 AM 32.0 °F 24.8 °F 30.2 °F 93% 29.41 in 1.0 mi North 8.1 mph - 0.01 in Snow Light Snow
2:09 AM 32.0 °F 25.6 °F 30.2 °F 93% 29.41 in 0.5 mi North 6.9 mph - 0.01 in Fog , Snow Light Snow
2:26 AM 32.0 °F 24.8 °F 30.2 °F 93% 29.41 in 1.2 mi North 8.1 mph - 0.01 in Snow Light Snow
2:28 AM 32.0 °F 24.2 °F 32.0 °F 100% 29.41 in 1.5 mi North 9.2 mph - 0.01 in Snow Light Snow
2:31 AM 32.0 °F 24.2 °F 30.2 °F 93% 29.41 in 2.0 mi North 9.2 mph - 0.01 in Snow Light Snow
2:36 AM 32.0 °F 23.6 °F 30.2 °F 93% 29.41 in 3.0 mi North 10.4 mph - 0.01 in Snow Light Snow
2:49 AM 32.0 °F 23.6 °F 30.2 °F 93% 29.41 in 4.0 mi North 10.4 mph - 0.01 in   Overcast
2:53 AM 32.0 °F 23.6 °F 30.9 °F 96% 29.44 in 4.0 mi North 10.4 mph - 0.01 in Snow Light Snow
3:23 AM 33.8 °F 25.8 °F 30.2 °F 87% 29.42 in 3.0 mi North 10.4 mph - 0.01 in Snow Light Snow
3:53 AM 33.1 °F 26.1 °F 32.0 °F 96% 29.45 in 9.0 mi North 8.1 mph - 0.01 in   Overcast
4:32 AM 33.8 °F 27.0 °F 30.2 °F 87% 29.43 in 4.0 mi NNE 8.1 mph - 0.00 in Snow Light Snow
4:36 AM 33.8 °F 26.4 °F 30.2 °F 87% 29.43 in 2.5 mi NNE 9.2 mph - 0.00 in Snow Light Snow
4:53 AM 33.1 °F 25.5 °F 30.9 °F 92% 29.45 in 2.0 mi North 9.2 mph - 0.01 in Snow Light Snow
4:57 AM 33.8 °F 24.8 °F 30.2 °F 87% 29.43 in 1.5 mi NNE 12.7 mph 17.3 mph 0.00 in Snow Light Snow
5:05 AM 33.8 °F 24.8 °F 30.2 °F 87% 29.43 in 1.2 mi NNE 12.7 mph 18.4 mph 0.00 in Snow Light Snow
5:12 AM 33.8 °F 27.0 °F 30.2 °F 87% 29.43 in 1.8 mi NNE 8.1 mph 18.4 mph 0.00 in Snow Light Snow
5:20 AM 33.8 °F 26.4 °F 30.2 °F 87% 29.43 in 2.0 mi NNE 9.2 mph - 0.00 in Snow Light Snow
5:41 AM 33.8 °F 26.4 °F 30.2 °F 87% 29.43 in 3.0 mi NNE 9.2 mph - N/A Snow Light Snow
5:53 AM 33.1 °F 26.1 °F 30.9 °F 92% 29.46 in 5.0 mi North 8.1 mph - 0.00 in Snow Light Snow
6:05 AM 33.8 °F 28.6 °F 32.0 °F 93% 29.44 in 5.0 mi North 5.8 mph - 0.00 in Snow Light Snow
6:13 AM 33.8 °F 25.8 °F 30.2 °F 87% 29.44 in 6.0 mi North 10.4 mph 17.3 mph 0.00 in Snow Light Snow
6:46 AM 33.8 °F 27.7 °F 32.0 °F 93% 29.45 in 2.0 mi North 6.9 mph - 0.00 in Snow Light Snow
6:50 AM 33.8 °F 27.0 °F 32.0 °F 93% 29.45 in 1.8 mi North 8.1 mph - 0.00 in Snow Light Snow
6:53 AM 33.1 °F 26.1 °F 32.0 °F 96% 29.47 in 1.5 mi North 8.1 mph - 0.00 in Snow Light Snow
7:03 AM 33.8 °F 27.0 °F 32.0 °F 93% 29.45 in 2.0 mi North 8.1 mph - 0.00 in Snow Light Snow
7:08 AM 33.8 °F 27.0 °F 32.0 °F 93% 29.45 in 5.0 mi North 8.1 mph - 0.00 in   Overcast
7:19 AM 33.8 °F 25.8 °F 32.0 °F 93% 29.45 in 10.0 mi North 10.4 mph - 0.00 in   Overcast
7:53 AM 34.0 °F 26.0 °F 32.0 °F 92% 29.48 in 10.0 mi NNE 10.4 mph - 0.00 in   Overcast
8:53 AM 35.1 °F 25.9 °F 30.9 °F 85% 29.48 in 10.0 mi NNE 13.8 mph 23.0 mph 0.00 in   Overcast
9:53 AM 35.1 °F 25.2 °F 30.0 °F 82% 29.49 in 10.0 mi NE 16.1 mph 26.5 mph 0.00 in   Overcast
10:53 AM 35.1 °F 25.5 °F 30.0 °F 82% 29.51 in 9.0 mi NE 15.0 mph 26.5 mph 0.00 in   Overcast
11:53 AM 37.0 °F 27.4 °F 30.0 °F 76% 29.52 in 10.0 mi NE 17.3 mph 29.9 mph 0.00 in   Overcast
12:53 PM 37.9 °F 28.2 °F 28.0 °F 68% 29.52 in 10.0 mi NE 18.4 mph 32.2 mph N/A   Mostly Cloudy
1:49 PM 37.4 °F 26.6 °F 28.4 °F 70% 29.51 in 10.0 mi NE 21.9 mph 28.8 mph 0.00 in   Overcast
1:53 PM 37.0 °F 27.4 °F 28.9 °F 73% 29.54 in 10.0 mi NE 17.3 mph 28.8 mph 0.00 in   Overcast
2:53 PM 37.0 °F 27.7 °F 28.0 °F 70% 29.57 in 10.0 mi ENE 16.1 mph 23.0 mph N/A   Overcast
3:09 PM 35.6 °F 26.6 °F 30.2 °F 81% 29.55 in 7.0 mi NE 13.8 mph 24.2 mph 0.00 in Snow Light Snow
3:37 PM 35.6 °F 26.6 °F 30.2 °F 81% 29.56 in 10.0 mi NE 13.8 mph - 0.00 in   Overcast
3:53 PM 35.1 °F 26.9 °F 30.0 °F 82% 29.59 in 10.0 mi NE 11.5 mph - 0.00 in   Overcast
4:53 PM 35.1 °F 27.4 °F 30.0 °F 82% 29.62 in 10.0 mi NE 10.4 mph 19.6 mph N/A   Overcast
5:53 PM 35.1 °F 25.5 °F 28.9 °F 78% 29.65 in 10.0 mi NNE 15.0 mph 20.7 mph N/A   Overcast
6:53 PM 34.0 °F 27.2 °F 30.0 °F 85% 29.68 in 10.0 mi NNE 8.1 mph 19.6 mph N/A   Overcast
7:53 PM 34.0 °F 25.0 °F 28.0 °F 79% 29.70 in 10.0 mi NE 12.7 mph 23.0 mph N/A   Overcast
8:53 PM 34.0 °F 24.6 °F 28.0 °F 79% 29.73 in 10.0 mi NE 13.8 mph 24.2 mph N/A   Overcast
9:36 PM 33.8 °F 25.3 °F 28.4 °F 81% 29.72 in 10.0 mi NE 11.5 mph 23.0 mph N/A   Overcast
9:53 PM 34.0 °F 24.6 °F 28.0 °F 79% 29.75 in 10.0 mi NE 13.8 mph 25.3 mph N/A   Overcast
10:53 PM 33.1 °F 23.4 °F 28.0 °F 82% 29.77 in 10.0 mi NNE 13.8 mph 21.9 mph N/A   Overcast
11:53 PM 33.1 °F 24.4 °F 28.0 °F 82% 29.79 in 10.0 mi NNE 11.5 mph 23.0 mph N/A   Overcast